GW4025 Weather Reports


time (UTC)temp
F
wind
direction
speed
knots
gust
knots
rain 1hr
in
rain 24hr
in
rain mn
in
humidity
%
barometer
mb
20260507080216 57 0 0.0 0.0 0.00 0.00 0.00 77 1006.2
20260507075403 57 0 0.0 0.0 0.00 0.00 0.00 75 1006.1
20260507074505 56 0 0.0 0.0 0.00 0.00 0.00 76 1005.9
20260507073603 56 0 0.0 0.0 0.00 0.00 0.00 74 1006.2
20260507072703 56 0 0.0 0.0 0.00 0.00 0.00 74 1006.0
20260507071803 55 330 0.0 0.9 0.00 0.00 0.00 76 1006.1
20260507070903 55 316 0.0 0.9 0.00 0.00 0.00 74 1006.1
20260507070007 54 0 0.0 0.0 0.00 0.00 0.00 75 1006.0
20260507065404 53 0 0.0 0.0 0.00 0.00 0.00 74 1006.0
20260507064503 53 347 0.0 0.9 0.00 0.00 0.00 75 1005.8
20260507063603 52 0 0.0 0.0 0.00 0.00 0.00 74 1005.9
20260507062703 52 0 0.0 0.0 0.00 0.00 0.00 75 1005.9
20260507061805 51 0 0.0 0.0 0.00 0.00 0.00 80 1005.8
20260507060903 51 0 0.0 0.0 0.00 0.00 0.00 83 1005.8
20260507060004 51 0 0.0 0.0 0.00 0.00 0.00 81 1005.6
20260507055403 51 0 0.0 0.0 0.00 0.00 0.00 80 1005.8
20260507054503 50 0 0.0 0.0 0.00 0.00 0.00 80 1005.6
20260507053603 49 0 0.0 0.0 0.00 0.00 0.00 80 1005.4
20260507052703 49 43 0.0 0.9 0.00 0.00 0.00 80 1005.2
20260507052017 49 0 0.0 0.0 0.00 0.00 0.00 82 1005.4
20260507050903 49 354 0.0 0.9 0.00 0.00 0.00 81 1004.8
20260507050005 49 0 0.0 0.0 0.00 0.00 0.00 80 1005.0
20260507045403 49 57 0.0 0.9 0.00 0.00 0.00 79 1004.8
20260507044718 49 53 0.0 0.9 0.00 0.00 0.00 80 1004.9
20260507043603 49 0 0.0 0.0 0.00 0.00 0.00 76 1004.7
20260507042705 50 0 0.0 0.0 0.00 0.00 0.00 80 1004.6
20260507041805 50 0 0.0 0.0 0.00 0.00 0.00 79 1004.4
20260507040903 50 82 0.0 0.9 0.00 0.00 0.00 76 1004.2
20260507040219 50 0 0.0 0.0 0.00 0.00 0.00 76 1004.2
20260507035403 50 0 0.0 0.0 0.00 0.00 0.00 76 1004.2
20260507034503 50 0 0.0 0.0 0.00 0.00 0.00 76 1004.1
20260507033605 50 0 0.0 0.0 0.00 0.02 0.00 76 1004.2
20260507032704 51 0 0.0 0.0 0.00 0.03 0.00 75 1004.2
20260507031803 51 0 0.0 0.0 0.00 0.05 0.00 75 1004.2
20260507030903 51 0 0.0 0.0 0.00 0.07 0.00 74 1004.1
20260507030003 52 0 0.0 0.0 0.00 0.08 0.00 76 1004.2
20260507025618 52 0 0.0 0.0 0.00 0.09 0.00 78 1004.0
20260507024505 51 224 0.0 0.9 0.00 0.11 0.00 78 1004.1
20260507023603 51 315 0.0 0.9 0.00 0.14 0.00 80 1004.3
20260507022703 51 0 0.0 0.0 0.00 0.15 0.00 82 1004.2
20260507021805 51 0 0.0 0.0 0.00 0.18 0.00 80 1004.1
20260507020903 51 0 0.0 0.0 0.00 0.18 0.00 79 1004.1
20260507020003 51 0 0.0 0.0 0.00 0.18 0.00 80 1004.1
20260507015403 51 0 0.0 0.0 0.00 0.18 0.00 77 1004.2
20260507014505 51 54 0.0 0.9 0.00 0.18 0.00 78 1004.0
20260507013603 51 0 0.0 0.0 0.00 0.18 0.00 77 1003.9
20260507012705 51 232 0.0 0.9 0.00 0.18 0.00 78 1004.0
20260507011803 51 23 0.0 0.9 0.00 0.18 0.00 80 1004.1
20260507010903 51 329 0.0 0.9 0.00 0.18 0.00 83 1003.8
20260507010003 51 356 0.0 0.9 0.00 0.18 0.00 80 1004.0
20260507005404 51 91 0.0 0.9 0.00 0.18 0.00 78 1004.0
20260507004503 51 0 0.0 0.0 0.00 0.18 0.00 80 1004.0
20260507003603 51 0 0.0 0.0 0.00 0.18 0.00 81 1004.1
20260507002919 51 341 0.0 0.9 0.00 0.19 0.00 81 1004.2
20260507001803 52 0 0.0 0.0 0.00 0.19 0.00 78 1004.0
20260507000903 52 10 0.0 0.9 0.00 0.19 0.00 79 1004.0
20260507000219 52 358 0.0 0.9 0.00 0.19 0.00 82 1003.8
20260506235617 52 0 0.0 0.0 0.00 0.20 0.00 79 1003.8
20260506234716 52 0 0.0 0.0 0.00 0.20 0.00 84 1003.9
20260506233603 53 0 0.0 0.0 0.00 0.21 0.00 85 1003.8
20260506232703 53 335 0.0 2.6 0.00 0.21 0.00 85 1003.6
20260506231803 53 357 0.0 1.7 0.00 0.21 0.00 84 1003.7
20260506230903 53 349 0.0 2.6 0.00 0.21 0.00 82 1003.8
20260506230003 54 37 0.0 2.6 0.00 0.21 0.00 82 1003.4
20260506225403 53 357 0.9 5.2 0.00 0.21 0.00 82 1003.6
20260506224503 54 357 0.9 3.5 0.00 0.21 0.00 82 1003.5
20260506223603 54 355 0.9 3.5 0.00 0.21 0.00 83 1003.6
20260506222919 55 355 0.9 3.5 0.00 0.21 0.00 83 1003.4
20260506221805 55 353 0.0 2.6 0.00 0.21 0.00 83 1003.4
20260506220903 56 6 0.0 0.9 0.00 0.21 0.00 83 1003.5
20260506220005 56 354 0.9 2.6 0.00 0.21 0.00 83 1003.3
20260506215403 56 340 0.9 2.6 0.00 0.21 0.21 83 1003.2
20260506214503 55 5 0.0 1.7 0.00 0.21 0.21 85 1003.2
20260506213605 56 295 0.0 0.9 0.00 0.21 0.21 85 1002.9
20260506212703 56 66 0.0 0.9 0.00 0.21 0.21 84 1002.8
20260506211803 56 74 0.0 3.5 0.00 0.21 0.21 84 1002.9
20260506210903 56 73 0.0 0.9 0.00 0.21 0.21 84 1002.7
20260506210004 56 355 0.0 0.9 0.00 0.21 0.21 84 1002.5
20260506205403 56 358 0.0 0.9 0.00 0.21 0.21 83 1002.7
20260506204503 56 330 0.0 1.7 0.00 0.21 0.21 83 1002.6
20260506203603 56 38 0.0 1.7 0.00 0.21 0.21 82 1002.4
20260506202703 56 0 0.0 0.0 0.00 0.21 0.21 82 1002.2
20260506201805 57 46 0.0 0.9 0.00 0.21 0.21 81 1002.4
20260506200903 58 353 0.0 1.7 0.00 0.21 0.21 78 1002.1
20260506200005 58 212 0.0 1.7 0.00 0.21 0.21 77 1001.9
20260506195619 58 255 0.0 2.6 0.00 0.21 0.21 77 1002.0
20260506194506 58 358 0.0 0.9 0.00 0.21 0.21 81 1001.6
20260506193605 58 357 0.0 1.7 0.00 0.21 0.21 79 1001.2
20260506192703 59 323 0.0 1.7 0.00 0.21 0.21 78 1001.0
20260506191803 58 38 0.0 1.7 0.00 0.21 0.21 79 1000.9
20260506190903 60 246 0.0 0.9 0.00 0.21 0.21 78 1000.6
20260506185403 60 184 0.0 0.9 0.00 0.21 0.21 74 1000.5
20260506184503 61 0 0.0 0.0 0.00 0.21 0.21 75 1000.2
20260506183604 61 167 0.0 0.9 0.00 0.21 0.21 75 1000.1
20260506182704 60 346 0.0 0.9 0.00 0.21 0.21 80 999.8
20260506182019 61 49 0.0 0.9 0.00 0.21 0.21 78 999.6
20260506180903 63 304 0.0 0.9 0.00 0.21 0.21 75 999.6
20260506180217 63 263 0.0 1.7 0.00 0.21 0.21 69 999.3
20260506175403 63 107 0.0 3.5 0.00 0.21 0.21 66 999.0
20260506174504 64 345 0.0 0.9 0.00 0.21 0.21 65 999.0
20260506173603 64 338 0.0 1.7 0.00 0.21 0.21 67 998.9
20260506172705 64 354 0.0 1.7 0.00 0.21 0.21 67 998.6
20260506172018 64 351 0.0 1.7 0.00 0.21 0.21 71 998.6
20260506171118 65 347 0.0 3.5 0.00 0.21 0.21 70 998.6
20260506170217 65 350 0.9 3.5 0.00 0.21 0.21 64 998.5
20260506165403 65 360 0.0 1.7 0.00 0.21 0.21 68 998.6
20260506164503 65 0 0.0 0.0 0.00 0.21 0.21 67 998.5
20260506163603 65 50 0.0 0.9 0.00 0.21 0.21 68 998.6
20260506162703 65 119 0.0 1.7 0.00 0.21 0.21 66 998.4
20260506161803 66 294 0.0 2.6 0.00 0.21 0.21 66 998.6
20260506161117 67 271 0.9 2.6 0.00 0.21 0.21 66 998.4
20260506160217 66 68 0.0 1.7 0.00 0.21 0.21 66 998.3
20260506155403 67 90 0.0 5.2 0.00 0.21 0.21 65 998.5
20260506154505 67 263 0.9 2.6 0.00 0.21 0.21 62 998.3
20260506153603 67 251 0.0 2.6 0.00 0.21 0.21 63 998.3
20260506152703 67 0 0.0 0.0 0.00 0.21 0.21 64 998.4
20260506151803 66 165 0.9 3.5 0.00 0.21 0.21 63 998.4
20260506150903 67 292 0.0 1.7 0.00 0.21 0.21 62 998.3
20260506150003 65 206 0.0 2.6 0.00 0.21 0.21 63 998.5
20260506145403 66 201 0.0 2.6 0.00 0.21 0.21 66 998.3
20260506144503 66 155 0.0 0.9 0.00 0.21 0.21 62 998.5
20260506143605 69 222 0.0 2.6 0.00 0.21 0.21 60 998.5
20260506142703 67 165 0.0 0.9 0.00 0.21 0.21 62 998.5
20260506142017 66 0 0.0 0.0 0.00 0.21 0.21 65 998.4
20260506141117 67 344 0.0 0.9 0.00 0.21 0.21 65 998.6
20260506140004 65 0 0.0 0.0 0.00 0.21 0.21 63 998.8
20260506135620 65 156 0.0 2.6 0.00 0.21 0.21 62 998.8
20260506134503 66 201 0.9 5.2 0.00 0.21 0.21 61 998.9
20260506133603 67 194 0.0 2.6 0.00 0.21 0.21 62 998.9
20260506132703 64 0 0.0 0.0 0.00 0.21 0.21 71 999.0
20260506132017 63 0 0.0 0.0 0.00 0.21 0.21 69 999.1
20260506130903 64 172 0.0 0.9 0.00 0.21 0.21 68 999.2
20260506130004 65 211 0.9 5.2 0.00 0.21 0.21 65 999.1
20260506125619 66 198 0.0 5.2 0.00 0.21 0.21 63 999.2
20260506124503 67 172 0.9 6.1 0.00 0.21 0.21 61 999.0
20260506123818 66 211 0.9 6.1 0.00 0.21 0.21 62 998.9
20260506122703 65 160 0.9 6.1 0.00 0.21 0.21 65 999.0
20260506121803 65 155 0.0 5.2 0.00 0.21 0.21 66 998.9
20260506120903 65 168 0.9 3.5 0.00 0.21 0.21 67 999.0
20260506120003 65 179 0.9 5.2 0.00 0.21 0.21 67 999.1
20260506115403 64 177 1.7 6.1 0.00 0.21 0.21 68 999.0
20260506114503 65 184 0.9 5.2 0.00 0.21 0.21 67 999.0
20260506113604 65 196 0.9 6.1 0.00 0.21 0.21 67 999.3
20260506112703 65 358 0.0 1.7 0.00 0.21 0.21 68 999.1
20260506111803 65 108 0.0 3.5 0.00 0.21 0.21 67 999.0
20260506110905 64 120 0.0 3.5 0.00 0.21 0.21 70 999.2
20260506110003 63 109 0.0 3.5 0.00 0.21 0.21 70 999.2
20260506105405 61 124 0.0 0.9 0.00 0.21 0.21 72 999.3
20260506104503 62 151 0.0 0.9 0.00 0.21 0.21 72 999.5
20260506103603 62 220 0.0 2.6 0.00 0.21 0.21 73 999.7
20260506102703 62 355 0.0 2.6 0.00 0.21 0.21 72 999.9
20260506101805 61 137 0.0 3.5 0.00 0.21 0.21 76 999.8
20260506100903 61 173 0.0 1.7 0.00 0.21 0.21 75 999.9
20260506100004 60 160 0.0 0.9 0.00 0.21 0.21 77 999.9
20260506095404 61 180 0.0 5.2 0.00 0.21 0.21 77 1000.0
20260506094717 60 172 0.9 5.2 0.00 0.21 0.21 78 1000.0
20260506093817 59 179 0.0 0.9 0.00 0.21 0.21 80 1000.0
20260506092705 58 206 0.0 2.6 0.00 0.21 0.21 81 1000.1
20260506091803 58 144 0.0 0.9 0.00 0.21 0.21 81 1000.2
20260506090905 57 0 0.0 0.0 0.00 0.21 0.21 80 1000.1
20260506090003 58 0 0.0 0.0 0.00 0.21 0.21 82 1000.1
20260506085403 57 221 0.0 1.7 0.00 0.21 0.21 82 999.9
20260506084503 57 0 0.0 0.0 0.00 0.21 0.21 82 999.9
20260506083603 56 0 0.0 0.0 0.00 0.21 0.21 83 1000.1
20260506082703 56 0 0.0 0.0 0.00 0.21 0.21 84 999.9
20260506081803 57 0 0.0 0.0 0.00 0.21 0.21 84 999.8
20260506080903 56 0 0.0 0.0 0.00 0.21 0.21 84 999.8